Time,TemperatureF,DewpointF,PressureIn,WindDirection,WindDirectionDegrees,WindSpeedMPH,WindSpeedGustMPH,Humidity,HourlyPrecipIn,Conditions,Clouds,dailyrainin,SoftwareType,DateUTC
2013-03-04 00:04:00,53.4,29.0,29.94,SW,214,4.3,5.8,38,-99.99,,,-99.99,WSDL version 423,2013-03-04 08:04:00,
2013-03-04 00:10:00,53.5,28.7,29.94,SSW,203,3.1,5.8,38,-99.99,,,-99.99,WSDL version 423,2013-03-04 08:10:00,
2013-03-04 00:15:00,53.3,28.8,29.94,SSW,203,2.2,5.8,39,-99.99,,,-99.99,WSDL version 423,2013-03-04 08:15:00,
2013-03-04 00:20:00,53.1,28.8,29.94,SSW,203,2.5,4.5,39,-99.99,,,-99.99,WSDL version 423,2013-03-04 08:20:00,
2013-03-04 00:25:00,53.0,28.7,29.94,SSW,203,0.0,4.5,39,-99.99,,,-99.99,WSDL version 423,2013-03-04 08:25:00,
2013-03-04 00:30:00,52.9,28.6,29.97,SSW,203,0.0,4.0,39,-99.99,,,-99.99,WSDL version 423,2013-03-04 08:30:00,
2013-03-04 00:35:00,52.5,28.3,29.97,SSW,203,0.0,3.1,39,-99.99,,,-99.99,WSDL version 423,2013-03-04 08:35:00,
2013-03-04 00:40:00,52.0,28.0,29.97,SSW,203,0.0,3.1,40,-99.99,,,-99.99,WSDL version 423,2013-03-04 08:40:00,
2013-03-04 00:45:00,51.8,28.3,29.97,SSW,203,0.0,3.1,40,-99.99,,,-99.99,WSDL version 423,2013-03-04 08:45:00,
2013-03-04 00:50:00,51.7,28.4,29.97,SSW,203,0.0,3.6,41,-99.99,,,-99.99,WSDL version 423,2013-03-04 08:50:00,
2013-03-04 00:55:00,51.7,28.5,29.97,SSW,203,0.0,3.6,41,-99.99,,,-99.99,WSDL version 423,2013-03-04 08:55:00,
2013-03-04 01:00:00,51.8,28.8,29.97,ESE,113,2.7,5.4,41,-99.99,,,-99.99,WSDL version 423,2013-03-04 09:00:00,
2013-03-04 01:05:00,51.9,28.9,29.97,ESE,113,3.1,5.4,41,-99.99,,,-99.99,WSDL version 423,2013-03-04 09:05:00,
2013-03-04 01:10:00,52.4,29.2,29.97,SSE,155,4.3,5.8,41,-99.99,,,-99.99,WSDL version 423,2013-03-04 09:10:00,
2013-03-04 01:15:00,53.9,29.6,29.97,SSE,153,3.3,8.1,39,-99.99,,,-99.99,WSDL version 423,2013-03-04 09:15:00,
2013-03-04 01:20:00,53.8,29.5,29.97,SW,225,0.0,8.1,39,-99.99,,,-99.99,WSDL version 423,2013-03-04 09:20:00,
2013-03-04 01:25:00,54.4,29.9,29.97,SW,214,2.9,10.5,39,-99.99,,,-99.99,WSDL version 423,2013-03-04 09:25:00,
2013-03-04 01:30:00,55.2,30.1,29.97,SSE,163,4.8,10.5,38,-99.99,,,-99.99,WSDL version 423,2013-03-04 09:30:00,
2013-03-04 01:35:00,54.8,29.7,29.97,SSW,197,2.2,8.1,38,-99.99,,,-99.99,WSDL version 423,2013-03-04 09:35:00,
2013-03-04 01:40:00,54.3,29.2,29.97,South,175,2.5,5.4,38,-99.99,,,-99.99,WSDL version 423,2013-03-04 09:40:00,
2013-03-04 01:45:00,53.8,29.4,29.97,SSW,203,0.0,5.4,39,-99.99,,,-99.99,WSDL version 423,2013-03-04 09:45:00,
2013-03-04 01:50:00,53.3,29.1,29.97,SSW,203,0.0,3.6,40,-99.99,,,-99.99,WSDL version 423,2013-03-04 09:50:00,
2013-03-04 01:55:00,52.6,29.0,29.97,SSW,203,0.0,3.6,40,-99.99,,,-99.99,WSDL version 423,2013-03-04 09:55:00,
2013-03-04 02:00:00,51.9,28.7,29.97,SSW,203,0.0,0.0,41,-99.99,,,-99.99,WSDL version 423,2013-03-04 10:00:00,
2013-03-04 02:05:00,51.3,28.8,29.97,SSW,203,0.0,0.0,42,-99.99,,,-99.99,WSDL version 423,2013-03-04 10:05:00,
2013-03-04 02:10:00,50.9,29.1,29.97,SSW,203,0.0,0.0,43,-99.99,,,-99.99,WSDL version 423,2013-03-04 10:10:00,
2013-03-04 02:15:00,50.6,29.4,30.00,SSW,203,0.0,0.0,44,-99.99,,,-99.99,WSDL version 423,2013-03-04 10:15:00,
2013-03-04 02:20:00,50.3,29.3,30.00,SSW,203,0.0,0.0,45,-99.99,,,-99.99,WSDL version 423,2013-03-04 10:20:00,
2013-03-04 02:25:00,50.0,29.8,30.00,SSW,203,0.0,0.0,46,-99.99,,,-99.99,WSDL version 423,2013-03-04 10:25:00,
2013-03-04 02:30:00,49.7,30.0,29.97,SSW,198,1.2,4.0,47,-99.99,,,-99.99,WSDL version 423,2013-03-04 10:30:00,
2013-03-04 02:35:00,49.8,30.3,29.97,SSW,197,2.9,6.3,46,-99.99,,,-99.99,WSDL version 423,2013-03-04 10:35:00,
2013-03-04 02:40:00,50.2,30.2,29.97,SSW,203,2.2,6.3,46,-99.99,,,-99.99,WSDL version 423,2013-03-04 10:40:00,
2013-03-04 02:45:00,50.7,30.7,29.97,SSW,205,3.8,5.8,46,-99.99,,,-99.99,WSDL version 423,2013-03-04 10:45:00,
2013-03-04 02:51:00,51.2,30.6,29.97,SSW,195,4.1,7.2,45,-99.99,,,-99.99,WSDL version 423,2013-03-04 10:51:00,
2013-03-04 02:56:00,51.2,30.6,29.97,SSW,203,0.0,7.2,45,-99.99,,,-99.99,WSDL version 423,2013-03-04 10:56:00,
2013-03-04 03:01:00,50.8,30.2,30.00,SSW,198,0.0,3.6,45,-99.99,,,-99.99,WSDL version 423,2013-03-04 11:01:00,
2013-03-04 03:06:00,50.8,30.7,30.00,SSE,158,2.9,3.6,46,-99.99,,,-99.99,WSDL version 423,2013-03-04 11:06:00,
2013-03-04 03:11:00,51.0,30.7,30.00,SSE,158,0.0,4.0,45,-99.99,,,-99.99,WSDL version 423,2013-03-04 11:11:00,
2013-03-04 03:16:00,50.9,30.6,30.00,SSE,158,0.0,4.0,46,-99.99,,,-99.99,WSDL version 423,2013-03-04 11:16:00,
2013-03-04 03:21:00,50.7,30.7,30.00,SSE,158,2.5,3.6,46,-99.99,,,-99.99,WSDL version 423,2013-03-04 11:21:00,
2013-03-04 03:26:00,50.2,30.3,30.00,South,178,0.0,3.6,46,-99.99,,,-99.99,WSDL version 423,2013-03-04 11:26:00,
2013-03-04 03:32:00,49.9,30.2,30.00,South,180,1.2,3.1,47,-99.99,,,-99.99,WSDL version 423,2013-03-04 11:32:00,
2013-03-04 03:37:00,49.8,30.4,30.00,SSW,203,2.9,4.5,47,-99.99,,,-99.99,WSDL version 423,2013-03-04 11:37:00,
2013-03-04 03:42:00,50.2,30.6,30.00,WSW,253,3.4,5.8,46,-99.99,,,-99.99,WSDL version 423,2013-03-04 11:42:00,
2013-03-04 03:47:00,51.3,30.8,30.00,SSW,213,4.0,5.8,45,-99.99,,,-99.99,WSDL version 423,2013-03-04 11:47:00,
2013-03-04 03:52:00,51.6,30.7,30.00,SW,233,4.3,5.8,44,-99.99,,,-99.99,WSDL version 423,2013-03-04 11:52:00,
2013-03-04 03:57:00,51.6,30.4,30.00,SW,230,3.4,5.4,44,-99.99,,,-99.99,WSDL version 423,2013-03-04 11:57:00,
2013-03-04 04:02:00,51.4,30.3,30.00,WSW,245,3.1,5.4,45,-99.99,,,-99.99,WSDL version 423,2013-03-04 12:02:00,
2013-03-04 04:07:00,51.0,30.6,30.00,SW,225,1.4,4.9,46,-99.99,,,-99.99,WSDL version 423,2013-03-04 12:07:00,
2013-03-04 04:12:00,50.5,30.8,30.00,SSW,211,2.7,4.0,47,-99.99,,,-99.99,WSDL version 423,2013-03-04 12:12:00,
2013-03-04 04:17:00,50.1,30.7,30.00,SSW,203,3.5,4.9,48,-99.99,,,-99.99,WSDL version 423,2013-03-04 12:17:00,
2013-03-04 04:22:00,49.6,30.7,30.00,NE,53,4.5,5.8,48,-99.99,,,-99.99,WSDL version 423,2013-03-04 12:22:00,
2013-03-04 04:27:00,50.2,30.8,30.00,WSW,248,1.3,5.8,47,-99.99,,,-99.99,WSDL version 423,2013-03-04 12:27:00,
2013-03-04 04:32:00,50.1,30.7,30.03,WSW,248,0.0,4.0,47,-99.99,,,-99.99,WSDL version 423,2013-03-04 12:32:00,
2013-03-04 04:37:00,49.5,30.4,30.03,WSW,248,0.0,2.7,48,-99.99,,,-99.99,WSDL version 423,2013-03-04 12:37:00,
2013-03-04 04:42:00,49.1,30.3,30.03,WSW,248,2.7,3.1,48,-99.99,,,-99.99,WSDL version 423,2013-03-04 12:42:00,
2013-03-04 04:47:00,48.9,30.6,30.03,WSW,248,2.5,4.0,49,-99.99,,,-99.99,WSDL version 423,2013-03-04 12:47:00,
2013-03-04 04:52:00,48.6,30.5,30.03,WSW,248,0.0,4.0,50,-99.99,,,-99.99,WSDL version 423,2013-03-04 12:52:00,
2013-03-04 04:57:00,48.0,30.5,30.03,WSW,248,0.0,3.6,51,-99.99,,,-99.99,WSDL version 423,2013-03-04 12:57:00,
2013-03-04 05:02:00,47.6,30.3,30.03,WSW,248,0.0,2.7,51,-99.99,,,-99.99,WSDL version 423,2013-03-04 13:02:00,
2013-03-04 05:07:00,47.3,30.4,30.03,WSW,248,1.0,2.7,52,-99.99,,,-99.99,WSDL version 423,2013-03-04 13:07:00,
2013-03-04 05:12:00,47.1,30.4,30.03,WSW,248,2.2,3.1,52,-99.99,,,-99.99,WSDL version 423,2013-03-04 13:12:00,
2013-03-04 05:17:00,46.4,29.9,30.03,WSW,248,0.0,3.1,53,-99.99,,,-99.99,WSDL version 423,2013-03-04 13:17:00,
2013-03-04 05:22:00,45.9,29.9,30.03,WSW,248,0.0,2.7,54,-99.99,,,-99.99,WSDL version 423,2013-03-04 13:22:00,
2013-03-04 05:27:00,45.4,30.0,30.03,WSW,248,0.0,0.0,55,-99.99,,,-99.99,WSDL version 423,2013-03-04 13:27:00,
2013-03-04 05:32:00,45.3,30.4,30.03,WSW,248,0.0,3.1,56,-99.99,,,-99.99,WSDL version 423,2013-03-04 13:32:00,
2013-03-04 05:37:00,45.6,30.6,30.03,SW,225,2.9,4.0,55,-99.99,,,-99.99,WSDL version 423,2013-03-04 13:37:00,
2013-03-04 05:42:00,46.2,30.8,30.03,SW,228,2.5,4.0,54,-99.99,,,-99.99,WSDL version 423,2013-03-04 13:42:00,
2013-03-04 05:47:00,47.3,30.7,30.03,SW,233,4.5,5.8,51,-99.99,,,-99.99,WSDL version 423,2013-03-04 13:47:00,
2013-03-04 05:52:00,48.6,30.4,30.03,SW,228,3.4,5.8,49,-99.99,,,-99.99,WSDL version 423,2013-03-04 13:52:00,
2013-03-04 05:57:00,48.8,30.5,30.03,SW,225,2.7,4.5,49,-99.99,,,-99.99,WSDL version 423,2013-03-04 13:57:00,
2013-03-04 06:02:00,48.5,30.4,30.03,SW,225,0.0,3.6,50,-99.99,,,-99.99,WSDL version 423,2013-03-04 14:02:00,
2013-03-04 06:07:00,47.9,30.6,30.03,SW,225,0.0,3.1,51,-99.99,,,-99.99,WSDL version 423,2013-03-04 14:07:00,
2013-03-04 06:12:00,47.6,30.8,30.03,SW,225,2.3,3.6,52,-99.99,,,-99.99,WSDL version 423,2013-03-04 14:12:00,
2013-03-04 06:17:00,47.8,31.3,30.03,SSW,210,2.9,4.9,53,-99.99,,,-99.99,WSDL version 423,2013-03-04 14:17:00,
2013-03-04 06:22:00,47.8,31.2,30.03,SSW,203,0.0,4.9,53,-99.99,,,-99.99,WSDL version 423,2013-03-04 14:22:00,
2013-03-04 06:27:00,47.7,31.4,30.03,SW,222,3.1,4.0,53,-99.99,,,-99.99,WSDL version 423,2013-03-04 14:27:00,
2013-03-04 06:32:00,48.2,31.1,30.06,WSW,248,1.1,4.0,51,-99.99,,,-99.99,WSDL version 423,2013-03-04 14:32:00,
2013-03-04 06:37:00,48.9,30.8,30.06,WSW,240,3.3,5.4,49,-99.99,,,-99.99,WSDL version 423,2013-03-04 14:37:00,
2013-03-04 06:42:00,49.7,30.7,30.06,SW,228,4.1,6.3,47,-99.99,,,-99.99,WSDL version 423,2013-03-04 14:42:00,
2013-03-04 06:47:00,50.3,30.8,30.06,SW,231,2.9,6.3,47,-99.99,,,-99.99,WSDL version 423,2013-03-04 14:47:00,
2013-03-04 06:52:00,50.8,31.0,30.06,WSW,250,1.4,5.4,46,-99.99,,,-99.99,WSDL version 423,2013-03-04 14:52:00,
2013-03-04 06:57:00,51.4,31.0,30.06,SW,236,2.7,7.2,45,-99.99,,,-99.99,WSDL version 423,2013-03-04 14:57:00,
2013-03-04 07:02:00,52.0,30.3,30.06,West,275,1.2,7.2,43,-99.99,,,-99.99,WSDL version 423,2013-03-04 15:02:00,
2013-03-04 07:07:00,52.6,30.5,30.06,West,270,0.0,4.0,42,-99.99,,,-99.99,WSDL version 423,2013-03-04 15:07:00,
2013-03-04 07:12:00,53.2,30.1,30.06,West,270,0.0,3.1,41,-99.99,,,-99.99,WSDL version 423,2013-03-04 15:12:00,
2013-03-04 07:17:00,54.1,30.3,30.06,West,270,0.0,3.1,40,-99.99,,,-99.99,WSDL version 423,2013-03-04 15:17:00,
2013-03-04 07:22:00,54.6,30.4,30.06,WSW,256,0.0,2.7,39,-99.99,,,-99.99,WSDL version 423,2013-03-04 15:22:00,
2013-03-04 07:27:00,55.0,30.5,30.06,WSW,248,0.0,2.7,39,-99.99,,,-99.99,WSDL version 423,2013-03-04 15:27:00,
2013-03-04 07:32:00,55.1,30.5,30.06,WSW,248,2.9,4.0,38,-99.99,,,-99.99,WSDL version 423,2013-03-04 15:32:00,
2013-03-04 07:37:00,55.6,30.4,30.06,WSW,248,1.3,4.9,38,-99.99,,,-99.99,WSDL version 423,2013-03-04 15:37:00,
2013-03-04 07:42:00,56.4,30.7,30.06,WSW,248,1.1,4.9,37,-99.99,,,-99.99,WSDL version 423,2013-03-04 15:42:00,
2013-03-04 07:47:00,56.9,30.8,30.06,SW,225,2.4,4.0,36,-99.99,,,-99.99,WSDL version 423,2013-03-04 15:47:00,
2013-03-04 07:52:00,57.6,30.8,30.06,SW,225,0.0,4.0,36,-99.99,,,-99.99,WSDL version 423,2013-03-04 15:52:00,
2013-03-04 07:57:00,58.5,31.6,30.06,SW,225,1.0,3.1,35,-99.99,,,-99.99,WSDL version 423,2013-03-04 15:57:00,
2013-03-04 08:02:00,58.9,31.4,30.06,SW,225,1.0,3.6,35,-99.99,,,-99.99,WSDL version 423,2013-03-04 16:02:00,
2013-03-04 08:07:00,59.6,32.0,30.06,SW,225,0.0,3.6,35,-99.99,,,-99.99,WSDL version 423,2013-03-04 16:07:00,
2013-03-04 08:12:00,60.3,32.5,30.06,SW,225,0.0,3.1,35,-99.99,,,-99.99,WSDL version 423,2013-03-04 16:12:00,
2013-03-04 08:18:00,60.7,32.4,30.09,SW,225,0.0,2.7,34,-99.99,,,-99.99,WSDL version 423,2013-03-04 16:18:00,
2013-03-04 08:23:00,62.2,33.3,30.09,SW,225,0.0,2.7,33,-99.99,,,-99.99,WSDL version 423,2013-03-04 16:23:00,
2013-03-04 08:28:00,62.0,33.3,30.09,SW,225,0.0,3.1,34,-99.99,,,-99.99,WSDL version 423,2013-03-04 16:28:00,
2013-03-04 08:33:00,63.2,33.2,30.06,SW,225,0.0,3.1,32,-99.99,,,-99.99,WSDL version 423,2013-03-04 16:33:00,
2013-03-04 08:38:00,61.8,32.0,30.06,NW,309,3.6,5.8,33,-99.99,,,-99.99,WSDL version 423,2013-03-04 16:38:00,
2013-03-04 08:43:00,61.3,31.8,30.06,NE,38,4.1,5.8,33,-99.99,,,-99.99,WSDL version 423,2013-03-04 16:43:00,
2013-03-04 08:48:00,61.7,32.3,30.09,East,88,2.7,5.4,33,-99.99,,,-99.99,WSDL version 423,2013-03-04 16:48:00,
2013-03-04 08:53:00,62.8,32.7,30.09,ENE,68,1.3,4.0,32,-99.99,,,-99.99,WSDL version 423,2013-03-04 16:53:00,
2013-03-04 08:58:00,63.7,33.0,30.09,ENE,68,0.0,3.6,32,-99.99,,,-99.99,WSDL version 423,2013-03-04 16:58:00,
2013-03-04 09:03:00,64.3,32.8,30.09,ENE,70,2.7,4.0,31,-99.99,,,-99.99,WSDL version 423,2013-03-04 17:03:00,
2013-03-04 09:08:00,64.2,32.7,30.09,SE,140,2.2,4.0,30,-99.99,,,-99.99,WSDL version 423,2013-03-04 17:08:00,
2013-03-04 09:13:00,64.0,31.9,30.09,NNE,23,2.7,3.6,30,-99.99,,,-99.99,WSDL version 423,2013-03-04 17:13:00,
2013-03-04 09:18:00,63.8,32.1,30.09,NW,308,1.6,6.3,30,-99.99,,,-99.99,WSDL version 423,2013-03-04 17:18:00,
2013-03-04 09:23:00,63.2,31.3,30.09,NNE,28,2.9,6.3,30,-99.99,,,-99.99,WSDL version 423,2013-03-04 17:23:00,
2013-03-04 09:28:00,63.4,31.6,30.09,North,3,3.4,6.3,30,-99.99,,,-99.99,WSDL version 423,2013-03-04 17:28:00,
2013-03-04 09:33:00,63.7,31.7,30.06,WNW,293,0.0,6.3,30,-99.99,,,-99.99,WSDL version 423,2013-03-04 17:33:00,
2013-03-04 09:38:00,64.8,32.1,30.06,NE,42,2.7,5.8,29,-99.99,,,-99.99,WSDL version 423,2013-03-04 17:38:00,
2013-03-04 09:43:00,64.9,31.9,30.06,NW,325,3.0,5.4,29,-99.99,,,-99.99,WSDL version 423,2013-03-04 17:43:00,
2013-03-04 09:48:00,65.6,32.4,30.06,NE,45,0.0,6.7,28,-99.99,,,-99.99,WSDL version 423,2013-03-04 17:48:00,
2013-03-04 09:53:00,65.6,31.6,30.06,NNE,28,3.7,8.1,28,-99.99,,,-99.99,WSDL version 423,2013-03-04 17:53:00,
2013-03-04 09:58:00,65.4,31.5,30.06,NW,315,2.7,8.1,28,-99.99,,,-99.99,WSDL version 423,2013-03-04 17:58:00,
2013-03-04 10:03:00,65.6,31.6,30.06,WNW,298,4.5,5.8,28,-99.99,,,-99.99,WSDL version 423,2013-03-04 18:03:00,
2013-03-04 10:08:00,65.9,31.6,30.06,NE,40,2.2,5.8,27,-99.99,,,-99.99,WSDL version 423,2013-03-04 18:08:00,
2013-03-04 10:13:00,66.2,31.5,30.06,NNW,343,4.0,6.3,28,-99.99,,,-99.99,WSDL version 423,2013-03-04 18:13:00,
2013-03-04 10:18:00,66.1,31.4,30.06,ENE,58,3.6,6.7,27,-99.99,,,-99.99,WSDL version 423,2013-03-04 18:18:00,
2013-03-04 10:23:00,66.1,31.2,30.06,ESE,110,3.8,7.6,27,-99.99,,,-99.99,WSDL version 423,2013-03-04 18:23:00,
2013-03-04 10:28:00,66.3,31.3,30.06,North,358,1.5,7.6,27,-99.99,,,-99.99,WSDL version 423,2013-03-04 18:28:00,
2013-03-04 10:30:00,66.7,31.7,30.06,NNW,338,1.3,6.3,27,-99.99,,,-99.99,WSDL version 423,2013-03-04 18:30:00,
2013-03-04 10:34:00,67.4,32.3,30.06,NNE,28,2.2,5.8,27,-99.99,,,-99.99,WSDL version 423,2013-03-04 18:34:00,
2013-03-04 10:39:00,67.0,31.4,30.06,NNW,328,4.7,6.3,27,-99.99,,,-99.99,WSDL version 423,2013-03-04 18:39:00,
2013-03-04 10:42:00,66.6,31.4,30.06,NW,310,3.8,6.3,27,-99.99,,,-99.99,WSDL version 423,2013-03-04 18:42:00,
2013-03-04 10:47:00,66.7,31.4,30.06,NW,308,2.7,6.3,27,-99.99,,,-99.99,WSDL version 423,2013-03-04 18:47:00,
2013-03-04 10:52:00,68.3,32.1,30.06,SSE,148,3.1,5.8,26,-99.99,,,-99.99,WSDL version 423,2013-03-04 18:52:00,
2013-03-04 10:58:00,68.2,32.0,30.06,SSW,205,3.6,6.3,26,-99.99,,,-99.99,WSDL version 423,2013-03-04 18:58:00,
2013-03-04 11:03:00,67.8,31.7,30.06,SSE,155,4.7,6.3,26,-99.99,,,-99.99,WSDL version 423,2013-03-04 19:03:00,
2013-03-04 11:08:00,67.6,31.5,30.06,South,175,4.1,8.1,26,-99.99,,,-99.99,WSDL version 423,2013-03-04 19:08:00,
2013-03-04 11:14:00,67.4,31.4,30.06,WNW,303,4.1,8.1,26,-99.99,,,-99.99,WSDL version 423,2013-03-04 19:14:00,
2013-03-04 11:19:00,67.3,31.3,30.06,NW,307,3.1,5.8,26,-99.99,,,-99.99,WSDL version 423,2013-03-04 19:19:00,
2013-03-04 11:25:00,68.5,31.3,30.06,SSW,203,1.6,4.9,25,-99.99,,,-99.99,WSDL version 423,2013-03-04 19:25:00,
2013-03-04 11:30:00,69.4,32.0,30.06,East,101,3.6,6.7,25,-99.99,,,-99.99,WSDL version 423,2013-03-04 19:30:00,
2013-03-04 11:35:00,69.4,32.1,30.06,SE,133,3.3,6.7,25,-99.99,,,-99.99,WSDL version 423,2013-03-04 19:35:00,
2013-03-04 11:40:00,69.4,32.1,30.06,ENE,70,2.2,6.7,25,-99.99,,,-99.99,WSDL version 423,2013-03-04 19:40:00,
2013-03-04 11:41:00,69.5,32.0,30.06,SE,127,1.1,6.7,24,-99.99,,,-99.99,WSDL version 423,2013-03-04 19:41:00,
2013-03-04 11:46:00,69.8,31.4,30.06,SE,133,3.1,6.3,24,-99.99,,,-99.99,WSDL version 423,2013-03-04 19:46:00,
2013-03-04 11:51:00,70.5,32.0,30.06,ESE,113,2.7,6.7,24,-99.99,,,-99.99,WSDL version 423,2013-03-04 19:51:00,
2013-03-04 11:56:00,70.8,32.3,30.06,East,98,3.9,6.7,24,-99.99,,,-99.99,WSDL version 423,2013-03-04 19:56:00,
2013-03-04 12:01:00,70.4,31.9,30.06,South,188,4.3,8.1,24,-99.99,,,-99.99,WSDL version 423,2013-03-04 20:01:00,
2013-03-04 12:06:00,71.1,32.5,30.06,SSW,195,2.9,8.1,24,-99.99,,,-99.99,WSDL version 423,2013-03-04 20:06:00,
2013-03-04 12:11:00,70.6,31.8,30.06,SW,218,4.4,6.3,23,-99.99,,,-99.99,WSDL version 423,2013-03-04 20:11:00,
2013-03-04 12:16:00,69.9,31.3,30.06,SW,219,4.0,6.3,24,-99.99,,,-99.99,WSDL version 423,2013-03-04 20:16:00,
2013-03-04 12:21:00,69.7,30.9,30.06,SW,223,3.2,6.3,23,-99.99,,,-99.99,WSDL version 423,2013-03-04 20:21:00,
2013-03-04 12:26:00,69.8,30.7,30.06,South,186,3.8,6.3,24,-99.99,,,-99.99,WSDL version 423,2013-03-04 20:26:00,
2013-03-04 12:31:00,70.1,30.8,30.03,WSW,238,2.9,6.3,23,-99.99,,,-99.99,WSDL version 423,2013-03-04 20:31:00,
2013-03-04 12:36:00,70.1,30.6,30.03,West,270,2.9,6.7,23,-99.99,,,-99.99,WSDL version 423,2013-03-04 20:36:00,
2013-03-04 12:42:00,70.3,30.8,30.03,NW,313,4.3,5.4,23,-99.99,,,-99.99,WSDL version 423,2013-03-04 20:42:00,
2013-03-04 12:47:00,70.7,31.1,30.03,NNW,340,1.3,5.4,23,-99.99,,,-99.99,WSDL version 423,2013-03-04 20:47:00,
2013-03-04 12:52:00,71.7,31.9,30.03,SE,128,2.9,8.1,23,-99.99,,,-99.99,WSDL version 423,2013-03-04 20:52:00,
2013-03-04 12:57:00,71.6,31.7,30.03,East,98,4.7,8.3,23,-99.99,,,-99.99,WSDL version 423,2013-03-04 20:57:00,
2013-03-04 13:02:00,70.9,31.3,30.03,SE,125,4.9,8.3,23,-99.99,,,-99.99,WSDL version 423,2013-03-04 21:02:00,
2013-03-04 13:07:00,71.2,31.6,30.03,SSW,213,2.5,5.8,23,-99.99,,,-99.99,WSDL version 423,2013-03-04 21:07:00,
2013-03-04 13:12:00,70.8,30.9,30.03,North,352,3.1,7.2,23,-99.99,,,-99.99,WSDL version 423,2013-03-04 21:12:00,
2013-03-04 13:18:00,71.8,31.3,30.03,ESE,115,1.3,7.2,22,-99.99,,,-99.99,WSDL version 423,2013-03-04 21:18:00,
2013-03-04 13:23:00,73.2,32.1,30.03,East,95,3.0,4.0,22,-99.99,,,-99.99,WSDL version 423,2013-03-04 21:23:00,
2013-03-04 13:28:00,73.8,32.6,30.03,North,357,2.5,4.0,22,-99.99,,,-99.99,WSDL version 423,2013-03-04 21:28:00,
2013-03-04 13:33:00,74.1,32.7,30.03,ESE,104,1.1,4.9,21,-99.99,,,-99.99,WSDL version 423,2013-03-04 21:33:00,
2013-03-04 13:38:00,72.8,31.7,30.03,NNE,33,4.4,7.6,22,-99.99,,,-99.99,WSDL version 423,2013-03-04 21:38:00,
2013-03-04 13:43:00,71.3,30.9,30.03,NNW,346,5.1,7.6,23,-99.99,,,-99.99,WSDL version 423,2013-03-04 21:43:00,
2013-03-04 13:48:00,72.1,31.6,30.03,SSW,208,1.0,6.3,22,-99.99,,,-99.99,WSDL version 423,2013-03-04 21:48:00,
2013-03-04 13:53:00,72.8,31.8,30.03,SSW,194,5.4,7.2,22,-99.99,,,-99.99,WSDL version 423,2013-03-04 21:53:00,
2013-03-04 13:58:00,72.5,31.6,30.03,SSW,195,4.0,7.2,22,-99.99,,,-99.99,WSDL version 423,2013-03-04 21:58:00,
2013-03-04 14:03:00,72.7,31.7,30.03,SSE,153,2.9,7.2,22,-99.99,,,-99.99,WSDL version 423,2013-03-04 22:03:00,
2013-03-04 14:08:00,73.4,31.3,30.03,NW,312,1.1,4.9,21,-99.99,,,-99.99,WSDL version 423,2013-03-04 22:08:00,
2013-03-04 14:13:00,73.5,31.6,30.03,ESE,113,3.0,6.3,21,-99.99,,,-99.99,WSDL version 423,2013-03-04 22:13:00,
2013-03-04 14:19:00,73.9,31.5,30.03,East,85,3.5,6.3,21,-99.99,,,-99.99,WSDL version 423,2013-03-04 22:19:00,
2013-03-04 14:24:00,73.9,31.6,30.03,North,8,2.7,6.3,21,-99.99,,,-99.99,WSDL version 423,2013-03-04 22:24:00,
2013-03-04 14:29:00,74.7,32.2,30.03,WSW,248,0.0,6.3,21,-99.99,,,-99.99,WSDL version 423,2013-03-04 22:29:00,
2013-03-04 14:34:00,75.1,32.6,30.03,SSE,153,2.4,3.6,21,-99.99,,,-99.99,WSDL version 423,2013-03-04 22:34:00,
2013-03-04 14:39:00,75.1,32.5,30.03,ENE,68,1.0,3.6,21,-99.99,,,-99.99,WSDL version 423,2013-03-04 22:39:00,
2013-03-04 14:44:00,76.1,33.4,30.03,North,3,0.0,4.0,21,-99.99,,,-99.99,WSDL version 423,2013-03-04 22:44:00,
2013-03-04 14:49:00,75.4,32.8,30.03,NNE,25,2.7,4.0,21,-99.99,,,-99.99,WSDL version 423,2013-03-04 22:49:00,
2013-03-04 14:54:00,75.1,32.5,30.03,NNW,345,0.0,4.0,21,-99.99,,,-99.99,WSDL version 423,2013-03-04 22:54:00,
2013-03-04 14:59:00,75.0,32.4,30.03,NW,305,3.5,4.9,21,-99.99,,,-99.99,WSDL version 423,2013-03-04 22:59:00,
2013-03-04 15:04:00,75.4,32.8,30.03,SW,217,3.4,5.4,21,-99.99,,,-99.99,WSDL version 423,2013-03-04 23:04:00,
2013-03-04 15:09:00,74.7,32.2,30.03,SSE,155,4.3,6.3,21,-99.99,,,-99.99,WSDL version 423,2013-03-04 23:09:00,
2013-03-04 15:14:00,74.5,32.1,30.03,NNW,338,2.7,6.3,21,-99.99,,,-99.99,WSDL version 423,2013-03-04 23:14:00,
2013-03-04 15:19:00,73.9,31.6,30.03,West,263,5.5,7.2,21,-99.99,,,-99.99,WSDL version 423,2013-03-04 23:19:00,
2013-03-04 15:24:00,73.2,31.0,30.03,NNW,343,4.5,8.1,21,-99.99,,,-99.99,WSDL version 423,2013-03-04 23:24:00,
2013-03-04 15:29:00,73.7,31.4,30.03,SW,218,3.2,8.1,21,-99.99,,,-99.99,WSDL version 423,2013-03-04 23:29:00,
2013-03-04 15:34:00,74.8,32.3,30.03,WSW,248,3.6,5.4,21,-99.99,,,-99.99,WSDL version 423,2013-03-04 23:34:00,
2013-03-04 15:39:00,75.1,32.1,30.03,SSE,150,3.1,5.4,21,-99.99,,,-99.99,WSDL version 423,2013-03-04 23:39:00,
2013-03-04 15:44:00,74.6,32.1,30.03,NE,45,3.1,5.4,21,-99.99,,,-99.99,WSDL version 423,2013-03-04 23:44:00,
2013-03-04 15:49:00,74.0,31.7,30.03,ENE,68,2.9,5.4,21,-99.99,,,-99.99,WSDL version 423,2013-03-04 23:49:00,
2013-03-04 15:54:00,74.6,32.1,30.03,NE,40,3.2,5.4,21,-99.99,,,-99.99,WSDL version 423,2013-03-04 23:54:00,
2013-03-04 15:59:00,73.7,31.4,30.03,ENE,62,3.4,5.4,21,-99.99,,,-99.99,WSDL version 423,2013-03-04 23:59:00,
2013-03-04 16:04:00,73.6,31.3,30.03,ENE,65,2.7,5.4,21,-99.99,,,-99.99,WSDL version 423,2013-03-05 00:04:00,
2013-03-04 16:09:00,73.7,31.4,30.03,NE,56,3.1,5.8,21,-99.99,,,-99.99,WSDL version 423,2013-03-05 00:09:00,
2013-03-04 16:14:00,74.3,31.9,30.03,East,90,1.7,5.8,21,-99.99,,,-99.99,WSDL version 423,2013-03-05 00:14:00,
2013-03-04 16:19:00,74.5,32.0,30.03,ENE,60,2.9,4.5,21,-99.99,,,-99.99,WSDL version 423,2013-03-05 00:19:00,
2013-03-04 16:24:00,74.7,32.2,30.03,East,101,2.5,4.5,21,-99.99,,,-99.99,WSDL version 423,2013-03-05 00:24:00,
2013-03-04 16:29:00,74.6,32.2,30.03,East,88,3.3,5.4,21,-99.99,,,-99.99,WSDL version 423,2013-03-05 00:29:00,
2013-03-04 16:34:00,74.4,31.9,30.03,East,90,3.4,5.4,21,-99.99,,,-99.99,WSDL version 423,2013-03-05 00:34:00,
2013-03-04 16:39:00,74.4,32.0,30.03,East,90,1.6,4.0,21,-99.99,,,-99.99,WSDL version 423,2013-03-05 00:39:00,
2013-03-04 16:44:00,74.3,31.9,30.03,ESE,115,2.5,4.0,21,-99.99,,,-99.99,WSDL version 423,2013-03-05 00:44:00,
2013-03-04 16:49:00,73.9,31.6,30.03,SSW,203,1.2,3.6,21,-99.99,,,-99.99,WSDL version 423,2013-03-05 00:49:00,
2013-03-04 16:54:00,74.0,31.6,30.03,SSW,203,0.0,3.6,21,-99.99,,,-99.99,WSDL version 423,2013-03-05 00:54:00,
2013-03-04 16:59:00,74.0,31.6,30.03,SSW,203,0.0,3.1,21,-99.99,,,-99.99,WSDL version 423,2013-03-05 00:59:00,
2013-03-04 17:04:00,73.9,31.5,30.03,SSW,203,0.0,2.7,21,-99.99,,,-99.99,WSDL version 423,2013-03-05 01:04:00,
2013-03-04 17:09:00,72.9,30.7,30.03,East,90,4.0,5.8,21,-99.99,,,-99.99,WSDL version 423,2013-03-05 01:09:00,
2013-03-04 17:14:00,72.3,30.2,30.03,SSW,198,3.2,6.3,21,-99.99,,,-99.99,WSDL version 423,2013-03-05 01:14:00,
2013-03-04 17:19:00,71.6,30.0,30.03,SW,228,5.4,8.7,22,-99.99,,,-99.99,WSDL version 423,2013-03-05 01:19:00,
2013-03-04 17:24:00,70.9,30.2,30.03,South,190,5.5,8.7,22,-99.99,,,-99.99,WSDL version 423,2013-03-05 01:24:00,
2013-03-04 17:29:00,70.2,29.6,30.03,SSW,195,4.6,8.3,22,-99.99,,,-99.99,WSDL version 423,2013-03-05 01:29:00,
2013-03-04 17:34:00,69.6,29.1,30.03,SSW,197,5.6,8.3,22,-99.99,,,-99.99,WSDL version 423,2013-03-05 01:34:00,
2013-03-04 17:39:00,69.2,28.8,30.03,South,188,4.9,7.6,22,-99.99,,,-99.99,WSDL version 423,2013-03-05 01:39:00,
2013-03-04 17:44:00,68.8,28.4,30.03,SSW,194,4.3,7.2,22,-99.99,,,-99.99,WSDL version 423,2013-03-05 01:44:00,
2013-03-04 17:49:00,68.3,28.0,30.03,South,183,4.7,7.6,22,-99.99,,,-99.99,WSDL version 423,2013-03-05 01:49:00,
2013-03-04 17:54:00,68.0,28.0,30.03,South,186,4.5,7.6,23,-99.99,,,-99.99,WSDL version 423,2013-03-05 01:54:00,
2013-03-04 17:59:00,67.6,28.6,30.06,South,180,4.3,6.3,23,-99.99,,,-99.99,WSDL version 423,2013-03-05 01:59:00,
2013-03-04 18:04:00,67.4,28.3,30.06,South,180,4.5,6.3,23,-99.99,,,-99.99,WSDL version 423,2013-03-05 02:04:00,
2013-03-04 18:09:00,67.1,28.1,30.06,South,186,4.7,6.3,23,-99.99,,,-99.99,WSDL version 423,2013-03-05 02:09:00,
2013-03-04 18:14:00,66.9,27.9,30.06,South,173,5.5,8.3,23,-99.99,,,-99.99,WSDL version 423,2013-03-05 02:14:00,
2013-03-04 18:19:00,66.7,27.7,30.06,South,174,4.5,8.3,23,-99.99,,,-99.99,WSDL version 423,2013-03-05 02:19:00,
2013-03-04 18:24:00,66.5,27.6,30.06,South,180,4.7,7.2,23,-99.99,,,-99.99,WSDL version 423,2013-03-05 02:24:00,
2013-03-04 18:29:00,66.3,27.4,30.06,South,169,3.6,6.3,23,-99.99,,,-99.99,WSDL version 423,2013-03-05 02:29:00,
2013-03-04 18:34:00,65.9,27.1,30.06,SSE,158,3.3,5.4,23,-99.99,,,-99.99,WSDL version 423,2013-03-05 02:34:00,
2013-03-04 18:39:00,65.7,26.9,30.06,South,178,4.2,6.3,23,-99.99,,,-99.99,WSDL version 423,2013-03-05 02:39:00,
2013-03-04 18:44:00,65.8,27.0,30.06,South,177,4.9,7.6,23,-99.99,,,-99.99,WSDL version 423,2013-03-05 02:44:00,
2013-03-04 18:49:00,65.8,27.0,30.06,South,185,4.7,7.6,23,-99.99,,,-99.99,WSDL version 423,2013-03-05 02:49:00,
2013-03-04 18:54:00,65.8,27.0,30.06,SSE,166,5.4,8.3,23,-99.99,,,-99.99,WSDL version 423,2013-03-05 02:54:00,
2013-03-04 18:59:00,65.6,26.9,30.06,SSE,165,4.4,8.3,23,-99.99,,,-99.99,WSDL version 423,2013-03-05 02:59:00,
2013-03-04 19:04:00,65.4,26.7,30.06,SSE,152,4.5,8.1,23,-99.99,,,-99.99,WSDL version 423,2013-03-05 03:04:00,
2013-03-04 19:09:00,65.0,26.4,30.06,SSE,148,1.7,8.1,23,-99.99,,,-99.99,WSDL version 423,2013-03-05 03:09:00,
2013-03-04 19:14:00,64.3,26.2,30.06,ESE,113,2.2,4.0,24,-99.99,,,-99.99,WSDL version 423,2013-03-05 03:14:00,
2013-03-04 19:19:00,63.3,25.9,30.06,ESE,121,2.7,4.9,24,-99.99,,,-99.99,WSDL version 423,2013-03-05 03:19:00,
2013-03-04 19:24:00,62.7,25.4,30.06,ESE,113,3.1,5.4,24,-99.99,,,-99.99,WSDL version 423,2013-03-05 03:24:00,
2013-03-04 19:29:00,62.2,25.7,30.06,ESE,113,3.6,5.4,25,-99.99,,,-99.99,WSDL version 423,2013-03-05 03:29:00,
2013-03-04 19:34:00,61.8,25.6,30.06,SE,127,0.0,4.9,25,-99.99,,,-99.99,WSDL version 423,2013-03-05 03:34:00,
2013-03-04 19:39:00,61.4,25.3,30.06,SSE,163,3.6,6.3,25,-99.99,,,-99.99,WSDL version 423,2013-03-05 03:39:00,
2013-03-04 19:44:00,61.3,25.2,30.06,SSE,158,3.3,6.3,25,-99.99,,,-99.99,WSDL version 423,2013-03-05 03:44:00,
2013-03-04 19:49:00,61.0,24.9,30.06,WNW,293,4.2,7.2,25,-99.99,,,-99.99,WSDL version 423,2013-03-05 03:49:00,
2013-03-04 19:54:00,60.8,24.8,30.06,SSW,205,4.5,7.2,25,-99.99,,,-99.99,WSDL version 423,2013-03-05 03:54:00,
2013-03-04 19:59:00,61.2,25.1,30.06,SW,214,3.4,5.8,25,-99.99,,,-99.99,WSDL version 423,2013-03-05 03:59:00,
2013-03-04 20:04:00,61.4,25.3,30.06,SW,225,2.5,6.3,25,-99.99,,,-99.99,WSDL version 423,2013-03-05 04:04:00,
2013-03-04 20:09:00,61.3,25.2,30.06,West,270,2.9,6.3,25,-99.99,,,-99.99,WSDL version 423,2013-03-05 04:09:00,
2013-03-04 20:14:00,60.3,24.3,30.06,WNW,293,2.5,4.9,25,-99.99,,,-99.99,WSDL version 423,2013-03-05 04:14:00,
2013-03-04 20:19:00,59.5,23.7,30.06,West,270,3.3,5.4,25,-99.99,,,-99.99,WSDL version 423,2013-03-05 04:19:00,
2013-03-04 20:24:00,59.1,23.5,30.06,WSW,245,3.4,5.4,26,-99.99,,,-99.99,WSDL version 423,2013-03-05 04:24:00,
2013-03-04 20:29:00,58.9,24.1,30.06,SW,231,4.7,8.3,26,-99.99,,,-99.99,WSDL version 423,2013-03-05 04:29:00,
2013-03-04 20:34:00,59.3,24.4,30.06,SW,230,4.5,8.3,26,-99.99,,,-99.99,WSDL version 423,2013-03-05 04:34:00,
2013-03-04 20:39:00,59.5,24.6,30.06,SSW,211,4.3,8.1,26,-99.99,,,-99.99,WSDL version 423,2013-03-05 04:39:00,
2013-03-04 20:44:00,59.8,24.9,30.09,SW,215,4.3,8.1,26,-99.99,,,-99.99,WSDL version 423,2013-03-05 04:44:00,
2013-03-04 20:49:00,60.5,25.3,30.09,SSW,205,4.9,7.2,25,-99.99,,,-99.99,WSDL version 423,2013-03-05 04:49:00,
2013-03-04 20:54:00,60.8,24.8,30.09,SSW,203,3.6,7.2,25,-99.99,,,-99.99,WSDL version 423,2013-03-05 04:54:00,
2013-03-04 20:59:00,60.6,25.4,30.06,SSW,203,2.5,5.4,26,-99.99,,,-99.99,WSDL version 423,2013-03-05 04:59:00,
2013-03-04 21:00:00,60.5,25.5,30.06,SSW,203,2.7,5.4,26,-99.99,,,-99.99,WSDL version 423,2013-03-05 05:00:00,
2013-03-04 21:01:00,60.5,25.4,30.06,SSW,203,2.9,4.9,26,-99.99,,,-99.99,WSDL version 423,2013-03-05 05:01:00,
2013-03-04 21:02:00,60.4,25.4,30.06,SSW,203,2.7,4.9,26,-99.99,,,-99.99,WSDL version 423,2013-03-05 05:02:00,
2013-03-04 21:04:00,60.3,25.3,30.06,SSW,203,2.9,4.0,26,-99.99,,,-99.99,WSDL version 423,2013-03-05 05:04:00,
2013-03-04 21:09:00,59.8,24.9,30.06,SSW,203,0.0,4.0,26,-99.99,,,-99.99,WSDL version 423,2013-03-05 05:09:00,
2013-03-04 21:14:00,59.1,24.2,30.09,SSW,203,0.0,3.1,26,-99.99,,,-99.99,WSDL version 423,2013-03-05 05:14:00,
2013-03-04 21:19:00,58.7,23.9,30.09,SSW,203,3.6,4.9,26,-99.99,,,-99.99,WSDL version 423,2013-03-05 05:19:00,
2013-03-04 21:24:00,59.3,24.4,30.09,SSW,203,3.6,5.8,26,-99.99,,,-99.99,WSDL version 423,2013-03-05 05:24:00,
2013-03-04 21:29:00,59.7,24.7,30.06,SSW,203,3.4,7.2,26,-99.99,,,-99.99,WSDL version 423,2013-03-05 05:29:00,
2013-03-04 21:34:00,59.5,24.6,30.06,SSW,203,2.5,7.2,26,-99.99,,,-99.99,WSDL version 423,2013-03-05 05:34:00,
2013-03-04 21:39:00,59.1,24.3,30.06,SSW,203,1.3,4.0,26,-99.99,,,-99.99,WSDL version 423,2013-03-05 05:39:00,
2013-03-04 21:44:00,58.4,24.4,30.09,SSW,203,2.2,4.0,27,-99.99,,,-99.99,WSDL version 423,2013-03-05 05:44:00,
2013-03-04 21:49:00,58.2,24.4,30.09,SSW,203,1.3,3.1,27,-99.99,,,-99.99,WSDL version 423,2013-03-05 05:49:00,
2013-03-04 21:54:00,57.7,24.0,30.09,SSW,203,2.2,3.1,27,-99.99,,,-99.99,WSDL version 423,2013-03-05 05:54:00,
2013-03-04 21:59:00,57.0,23.7,30.06,SSW,203,2.7,3.6,28,-99.99,,,-99.99,WSDL version 423,2013-03-05 05:59:00,
2013-03-04 22:04:00,56.6,23.9,30.06,SSW,203,3.4,4.9,28,-99.99,,,-99.99,WSDL version 423,2013-03-05 06:04:00,
2013-03-04 22:09:00,55.9,23.3,30.06,SSW,203,2.9,4.9,28,-99.99,,,-99.99,WSDL version 423,2013-03-05 06:09:00,
2013-03-04 22:14:00,55.2,23.2,30.09,SSW,203,3.4,5.4,29,-99.99,,,-99.99,WSDL version 423,2013-03-05 06:14:00,
2013-03-04 22:19:00,54.9,23.2,30.09,SSW,203,2.2,5.4,29,-99.99,,,-99.99,WSDL version 423,2013-03-05 06:19:00,
2013-03-04 22:24:00,54.6,23.2,30.09,SSW,203,2.5,3.6,30,-99.99,,,-99.99,WSDL version 423,2013-03-05 06:24:00,
2013-03-04 22:29:00,54.4,23.7,30.09,SSW,203,2.2,4.0,30,-99.99,,,-99.99,WSDL version 423,2013-03-05 06:29:00,
2013-03-04 22:34:00,54.3,23.5,30.09,SSW,203,1.1,4.0,30,-99.99,,,-99.99,WSDL version 423,2013-03-05 06:34:00,
2013-03-04 22:39:00,54.1,24.0,30.09,SSW,203,2.4,3.6,31,-99.99,,,-99.99,WSDL version 423,2013-03-05 06:39:00,
2013-03-04 22:44:00,54.1,24.3,30.06,SSW,203,2.7,4.0,32,-99.99,,,-99.99,WSDL version 423,2013-03-05 06:44:00,
2013-03-04 22:49:00,54.4,25.2,30.06,SSW,203,2.9,4.0,32,-99.99,,,-99.99,WSDL version 423,2013-03-05 06:49:00,
2013-03-04 22:54:00,54.8,25.5,30.06,SSW,203,3.4,5.4,32,-99.99,,,-99.99,WSDL version 423,2013-03-05 06:54:00,
2013-03-04 22:59:00,55.3,25.5,30.09,SSW,203,3.6,5.4,31,-99.99,,,-99.99,WSDL version 423,2013-03-05 06:59:00,
2013-03-04 23:04:00,55.4,25.3,30.09,SSW,203,3.5,5.4,31,-99.99,,,-99.99,WSDL version 423,2013-03-05 07:04:00,
2013-03-04 23:09:00,55.0,24.9,30.09,SSW,203,2.9,4.9,31,-99.99,,,-99.99,WSDL version 423,2013-03-05 07:09:00,
2013-03-04 23:14:00,54.5,24.5,30.09,SSW,203,1.0,4.0,31,-99.99,,,-99.99,WSDL version 423,2013-03-05 07:14:00,
2013-03-04 23:19:00,54.0,24.1,30.09,SSW,203,0.0,4.0,31,-99.99,,,-99.99,WSDL version 423,2013-03-05 07:19:00,
2013-03-04 23:24:00,53.7,23.8,30.09,SSW,203,0.0,2.7,31,-99.99,,,-99.99,WSDL version 423,2013-03-05 07:24:00,
2013-03-04 23:29:00,53.2,23.6,30.06,SSW,203,1.2,2.7,31,-99.99,,,-99.99,WSDL version 423,2013-03-05 07:29:00,
2013-03-04 23:34:00,53.4,23.5,30.06,SSW,203,0.0,2.7,31,-99.99,,,-99.99,WSDL version 423,2013-03-05 07:34:00,
2013-03-04 23:39:00,53.4,23.9,30.06,SSW,203,0.0,3.1,32,-99.99,,,-99.99,WSDL version 423,2013-03-05 07:39:00,
2013-03-04 23:44:00,53.5,23.9,30.06,SSW,203,0.0,3.1,31,-99.99,,,-99.99,WSDL version 423,2013-03-05 07:44:00,
2013-03-04 23:49:00,53.1,24.0,30.06,SSW,203,2.4,3.1,32,-99.99,,,-99.99,WSDL version 423,2013-03-05 07:49:00,
2013-03-04 23:54:00,52.7,23.7,30.06,SSW,203,3.4,4.0,32,-99.99,,,-99.99,WSDL version 423,2013-03-05 07:54:00,
2013-03-04 23:59:00,52.5,24.0,30.06,SSW,203,2.9,4.5,33,-99.99,,,-99.99,WSDL version 423,2013-03-05 07:59:00,